SKW3814 KMSP-KGRR

Flight info

Callsign SKW3814
Flight time 0h 57m
Altitude 35000
Route COULT7 DLL J34 ADALE
Aircraft CRJ9/M-SDFGIRWY/S

Departure

Time 2026-05-07 20:39
Airport Minneapolis–Saint Paul International Airport / Wold–Chamberlain Field (KMSP)

Arrival

Time 2026-05-07 21:36
Airport Gerald R. Ford International Airport (KGRR)
Time Latitude Longitude Altitude Speed Heading
2026-05-07 20:12 44.88120 -93.20076 823 ft 0 kts 274°
2026-05-07 20:25 44.88120 -93.20072 823 ft 2 kts 274°
2026-05-07 20:25 44.88119 -93.20051 823 ft 3 kts 275°
2026-05-07 20:26 44.88118 -93.20040 823 ft 3 kts 287°
2026-05-07 20:26 44.88120 -93.20076 823 ft 0 kts 274°
2026-05-07 20:26 44.88114 -93.20030 823 ft 3 kts 318°
2026-05-07 20:27 44.88107 -93.20024 823 ft 2 kts 335°
2026-05-07 20:27 44.88091 -93.20014 823 ft 3 kts 336°
2026-05-07 20:27 44.88083 -93.20009 823 ft 0 kts 336°
2026-05-07 20:34 44.88115 -93.20024 823 ft 8 kts 354°
2026-05-07 20:35 44.88148 -93.20012 823 ft 2 kts 27°
2026-05-07 20:35 44.88177 -93.19989 823 ft 6 kts 42°
2026-05-07 20:35 44.88172 -93.19916 823 ft 11 kts 119°
2026-05-07 20:35 44.88134 -93.19827 823 ft 11 kts 121°
2026-05-07 20:36 44.88094 -93.19735 823 ft 11 kts 121°
2026-05-07 20:36 44.88071 -93.19673 823 ft 3 kts 92°
2026-05-07 20:36 44.88083 -93.19647 823 ft 6 kts 52°
2026-05-07 20:36 44.88072 -93.19568 823 ft 12 kts 121°
2026-05-07 20:37 44.88059 -93.19497 823 ft 4 kts 81°
2026-05-07 20:37 44.88072 -93.19462 823 ft 5 kts 41°
2026-05-07 20:37 44.88116 -93.19429 823 ft 6 kts 25°
2026-05-07 20:37 44.88142 -93.19433 823 ft 3 kts 309°
2026-05-07 20:38 44.88165 -93.19489 823 ft 21 kts 301°
2026-05-07 20:38 44.88349 -93.19914 823 ft 80 kts 301°
2026-05-07 20:38 44.88730 -93.20792 822 ft 128 kts 301°
2026-05-07 20:38 44.89265 -93.22031 843 ft 163 kts 302°
2026-05-07 20:39 44.89858 -93.23371 1366 ft 159 kts 302°
2026-05-07 20:39 44.90443 -93.24672 1926 ft 157 kts 302°
2026-05-07 20:39 44.91016 -93.25966 2484 ft 153 kts 301°
2026-05-07 20:39 44.91592 -93.27255 2945 ft 159 kts 301°
2026-05-07 20:40 44.92212 -93.28648 3281 ft 177 kts 301°
2026-05-07 20:40 44.92416 -93.30419 3475 ft 198 kts 256°
2026-05-07 20:40 44.91615 -93.32079 3820 ft 217 kts 220°
2026-05-07 20:40 44.90203 -93.32900 4392 ft 225 kts 195°
2026-05-07 20:41 44.88617 -93.33024 4896 ft 234 kts 175°
2026-05-07 20:41 44.87001 -93.32279 5318 ft 257 kts 154°
2026-05-07 20:41 44.85490 -93.30806 5907 ft 272 kts 139°
2026-05-07 20:41 44.84283 -93.28672 6386 ft 286 kts 114°
2026-05-07 20:42 44.83639 -93.26031 7215 ft 287 kts 105°
2026-05-07 20:42 44.83128 -93.23281 7885 ft 292 kts 104°
2026-05-07 20:42 44.82594 -93.20507 8620 ft 296 kts 105°
2026-05-07 20:42 44.81998 -93.17717 9321 ft 299 kts 108°
2026-05-07 20:43 44.81312 -93.14926 9990 ft 304 kts 110°
2026-05-07 20:43 44.80535 -93.12055 10271 ft 325 kts 111°
2026-05-07 20:43 44.79688 -93.09059 10573 ft 342 kts 111°
2026-05-07 20:43 44.78803 -93.05874 10943 ft 356 kts 111°
2026-05-07 20:44 44.77916 -93.02589 11563 ft 361 kts 110°
2026-05-07 20:44 44.77112 -92.99571 12087 ft 366 kts 110°
2026-05-07 20:44 44.76244 -92.96268 12665 ft 370 kts 110°
2026-05-07 20:44 44.75340 -92.92846 13287 ft 374 kts 109°
2026-05-07 20:45 44.74431 -92.89398 13873 ft 378 kts 110°
2026-05-07 20:45 44.73507 -92.85919 14448 ft 382 kts 110°
2026-05-07 20:45 44.72562 -92.82417 15023 ft 385 kts 110°
2026-05-07 20:45 44.71601 -92.78882 15578 ft 388 kts 110°
2026-05-07 20:46 44.70627 -92.75316 16104 ft 393 kts 110°
2026-05-07 20:46 44.69645 -92.71718 16620 ft 396 kts 110°
2026-05-07 20:46 44.68658 -92.68087 17149 ft 399 kts 110°
2026-05-07 20:46 44.67661 -92.64427 17632 ft 403 kts 110°
2026-05-07 20:47 44.66653 -92.60734 18103 ft 406 kts 110°
2026-05-07 20:47 44.65633 -92.57013 18582 ft 409 kts 110°
2026-05-07 20:47 44.64613 -92.53273 19042 ft 412 kts 110°
2026-05-07 20:47 44.63579 -92.49497 19472 ft 415 kts 110°
2026-05-07 20:48 44.62537 -92.45704 19911 ft 418 kts 110°
2026-05-07 20:48 44.61486 -92.41883 20347 ft 420 kts 110°
2026-05-07 20:48 44.60440 -92.38095 20760 ft 423 kts 110°
2026-05-07 20:48 44.59376 -92.34237 21161 ft 426 kts 110°
2026-05-07 20:49 44.58301 -92.30350 21534 ft 429 kts 110°
2026-05-07 20:49 44.57221 -92.26444 21927 ft 431 kts 110°
2026-05-07 20:49 44.56132 -92.22513 22303 ft 433 kts 111°
2026-05-07 20:49 44.54790 -92.18738 22674 ft 435 kts 123°
2026-05-07 20:50 44.53030 -92.15274 22992 ft 437 kts 129°
2026-05-07 20:50 44.51147 -92.11928 23325 ft 439 kts 129°
2026-05-07 20:50 44.49261 -92.08548 23670 ft 441 kts 128°
2026-05-07 20:50 44.47429 -92.05094 23990 ft 443 kts 127°
2026-05-07 20:51 44.45629 -92.01580 24297 ft 445 kts 127°
2026-05-07 20:51 44.44015 -91.98457 24542 ft 447 kts 127°
2026-05-07 20:51 44.42180 -91.94939 24830 ft 449 kts 127°
2026-05-07 20:51 44.40330 -91.91398 25103 ft 452 kts 127°
2026-05-07 20:52 44.38471 -91.87834 25362 ft 454 kts 127°
2026-05-07 20:52 44.36664 -91.84199 25607 ft 457 kts 122°
2026-05-07 20:52 44.35086 -91.80326 25875 ft 459 kts 117°
2026-05-07 20:52 44.33657 -91.76328 26098 ft 462 kts 116°
2026-05-07 20:53 44.32232 -91.72288 26316 ft 464 kts 116°
2026-05-07 20:53 44.30763 -91.68269 26573 ft 466 kts 118°
2026-05-07 20:53 44.29226 -91.64276 26826 ft 468 kts 118°
2026-05-07 20:53 44.27688 -91.60264 27024 ft 470 kts 118°
2026-05-07 20:54 44.26150 -91.56229 27255 ft 472 kts 118°
2026-05-07 20:54 44.24605 -91.52179 27440 ft 474 kts 118°
2026-05-07 20:54 44.23045 -91.48108 27660 ft 476 kts 118°
2026-05-07 20:54 44.21478 -91.44034 27877 ft 478 kts 118°
2026-05-07 20:55 44.19906 -91.39945 28059 ft 480 kts 118°
2026-05-07 20:55 44.18329 -91.35841 28280 ft 481 kts 118°
2026-05-07 20:55 44.16742 -91.31722 28459 ft 483 kts 118°
2026-05-07 20:55 44.15149 -91.27599 28662 ft 485 kts 118°
2026-05-07 20:56 44.13569 -91.23511 28826 ft 486 kts 118°
2026-05-07 20:56 44.11964 -91.19360 29013 ft 488 kts 118°
2026-05-07 20:56 44.10347 -91.15202 29191 ft 489 kts 118°
2026-05-07 20:56 44.08726 -91.11030 29364 ft 491 kts 118°
2026-05-07 20:57 44.07104 -91.06848 29500 ft 493 kts 118°
2026-05-07 20:57 44.05470 -91.02658 29700 ft 493 kts 118°
2026-05-07 20:57 44.03836 -90.98464 29859 ft 494 kts 118°
2026-05-07 20:57 44.02187 -90.94254 29980 ft 496 kts 118°
2026-05-07 20:58 44.00541 -90.90044 30165 ft 496 kts 118°
2026-05-07 20:58 43.98886 -90.85814 30269 ft 499 kts 118°
2026-05-07 20:58 43.97217 -90.81569 30251 ft 504 kts 119°
2026-05-07 20:59 43.93833 -90.72967 30449 ft 509 kts 119°
2026-05-07 20:59 43.92132 -90.68659 30610 ft 509 kts 120°
2026-05-07 20:59 43.90428 -90.64344 30765 ft 511 kts 119°
2026-05-07 20:59 43.88718 -90.60018 30912 ft 512 kts 119°
2026-05-07 21:00 43.87005 -90.55689 31073 ft 513 kts 119°
2026-05-07 21:00 43.84142 -90.48480 31275 ft 515 kts 120°
2026-05-07 21:00 43.82415 -90.44132 31440 ft 515 kts 120°
2026-05-07 21:01 43.80682 -90.39782 31596 ft 515 kts 120°
2026-05-07 21:01 43.78953 -90.35447 31803 ft 515 kts 120°
2026-05-07 21:01 43.77221 -90.31110 31967 ft 515 kts 120°
2026-05-07 21:01 43.75486 -90.26777 32165 ft 514 kts 120°
2026-05-07 21:02 43.73748 -90.22440 32293 ft 515 kts 120°
2026-05-07 21:02 43.72011 -90.18112 32469 ft 515 kts 120°
2026-05-07 21:02 43.70271 -90.13782 32641 ft 515 kts 120°
2026-05-07 21:02 43.68530 -90.09461 32778 ft 515 kts 120°
2026-05-07 21:03 43.66783 -90.05123 32872 ft 517 kts 120°
2026-05-07 21:03 43.65036 -90.00798 33049 ft 516 kts 120°
2026-05-07 21:03 43.63284 -89.96470 33211 ft 516 kts 120°
2026-05-07 21:03 43.61530 -89.92143 33347 ft 517 kts 121°
2026-05-07 21:04 43.59773 -89.87812 33482 ft 518 kts 121°
2026-05-07 21:04 43.58018 -89.83487 33639 ft 518 kts 121°
2026-05-07 21:04 43.56255 -89.79151 33762 ft 519 kts 121°
2026-05-07 21:04 43.54554 -89.74750 33900 ft 520 kts 117°
2026-05-07 21:05 43.53118 -89.70178 34035 ft 521 kts 111°
2026-05-07 21:05 43.51871 -89.65484 34136 ft 522 kts 110°
2026-05-07 21:05 43.50641 -89.60783 34291 ft 522 kts 111°
2026-05-07 21:05 43.49350 -89.56105 34421 ft 523 kts 112°
2026-05-07 21:06 43.48016 -89.51530 34590 ft 522 kts 113°
2026-05-07 21:06 43.45320 -89.42210 34722 ft 526 kts 113°
2026-05-07 21:07 43.42609 -89.32841 34859 ft 529 kts 113°
2026-05-07 21:07 43.39860 -89.23387 34894 ft 535 kts 113°
2026-05-07 21:08 43.37079 -89.13842 34902 ft 540 kts 113°
2026-05-07 21:08 43.34262 -89.04230 34908 ft 545 kts 113°
2026-05-07 21:09 43.31384 -88.94564 34913 ft 549 kts 113°
2026-05-07 21:09 43.28512 -88.84825 34922 ft 552 kts 113°
2026-05-07 21:10 43.25625 -88.75030 34921 ft 555 kts 113°
2026-05-07 21:10 43.22697 -88.65207 34920 ft 557 kts 114°
2026-05-07 21:11 43.19767 -88.55384 34923 ft 556 kts 114°
2026-05-07 21:11 43.15368 -88.40693 34919 ft 555 kts 114°
2026-05-07 21:12 43.13888 -88.35787 34531 ft 559 kts 114°
2026-05-07 21:12 43.12438 -88.30935 34084 ft 556 kts 111°
2026-05-07 21:12 43.11395 -88.26161 33659 ft 554 kts 103°
2026-05-07 21:12 43.10726 -88.21425 33216 ft 552 kts 98°
2026-05-07 21:13 43.10259 -88.16217 32733 ft 550 kts 95°
2026-05-07 21:13 43.09848 -88.11022 32245 ft 549 kts 96°
2026-05-07 21:13 43.09357 -88.05850 31754 ft 548 kts 97°
2026-05-07 21:13 43.08775 -88.00703 31264 ft 546 kts 98°
2026-05-07 21:14 43.08204 -87.95577 30770 ft 545 kts 98°
2026-05-07 21:14 43.07653 -87.90457 30279 ft 542 kts 97°
2026-05-07 21:14 43.07101 -87.85392 29786 ft 536 kts 98°
2026-05-07 21:14 43.06553 -87.80376 29288 ft 530 kts 97°
2026-05-07 21:15 43.06006 -87.75417 28786 ft 526 kts 97°
2026-05-07 21:15 43.05461 -87.70493 28288 ft 522 kts 98°
2026-05-07 21:15 43.04916 -87.65609 27790 ft 518 kts 98°
2026-05-07 21:15 43.04378 -87.60758 27301 ft 514 kts 97°
2026-05-07 21:16 43.03838 -87.55949 26809 ft 510 kts 98°
2026-05-07 21:16 43.03290 -87.51201 26307 ft 501 kts 97°
2026-05-07 21:16 43.02750 -87.46545 25813 ft 495 kts 99°
2026-05-07 21:16 43.02186 -87.41945 25308 ft 488 kts 98°
2026-05-07 21:17 43.01656 -87.37399 24805 ft 481 kts 97°
2026-05-07 21:17 43.01140 -87.32924 24296 ft 474 kts 97°
2026-05-07 21:17 43.00634 -87.28496 23788 ft 469 kts 97°
2026-05-07 21:17 43.00133 -87.24127 23285 ft 463 kts 97°
2026-05-07 21:18 42.99635 -87.19806 22790 ft 458 kts 98°
2026-05-07 21:18 42.99140 -87.15532 22298 ft 454 kts 98°
2026-05-07 21:18 42.98646 -87.11295 21806 ft 449 kts 98°
2026-05-07 21:18 42.98160 -87.07115 21304 ft 443 kts 98°
2026-05-07 21:19 42.97679 -87.02975 20798 ft 440 kts 98°
2026-05-07 21:19 42.97212 -86.98867 20292 ft 436 kts 98°
2026-05-07 21:19 42.96754 -86.94785 19783 ft 434 kts 98°
2026-05-07 21:19 42.96341 -86.91197 19332 ft 433 kts 98°
2026-05-07 21:20 42.95860 -86.87150 18844 ft 431 kts 99°
2026-05-07 21:20 42.95373 -86.83130 18348 ft 429 kts 99°
2026-05-07 21:20 42.94894 -86.79117 17851 ft 427 kts 99°
2026-05-07 21:20 42.94422 -86.75173 17362 ft 426 kts 99°
2026-05-07 21:21 42.93939 -86.71142 16857 ft 424 kts 99°
2026-05-07 21:21 42.93469 -86.67227 16365 ft 423 kts 99°
2026-05-07 21:21 42.92992 -86.63280 15859 ft 421 kts 99°
2026-05-07 21:21 42.92514 -86.59344 15360 ft 420 kts 99°
2026-05-07 21:22 42.92038 -86.55424 14864 ft 418 kts 99°
2026-05-07 21:22 42.91566 -86.51522 14362 ft 416 kts 99°
2026-05-07 21:22 42.91091 -86.47643 13862 ft 413 kts 99°
2026-05-07 21:22 42.90613 -86.43793 13357 ft 410 kts 99°
2026-05-07 21:23 42.90142 -86.39966 12856 ft 407 kts 99°
2026-05-07 21:23 42.89682 -86.36173 12355 ft 404 kts 99°
2026-05-07 21:23 42.89219 -86.32404 11853 ft 401 kts 99°
2026-05-07 21:23 42.88506 -86.28752 11344 ft 396 kts 111°
2026-05-07 21:24 42.87496 -86.25301 11018 ft 386 kts 114°
2026-05-07 21:24 42.86495 -86.22013 10915 ft 365 kts 114°
2026-05-07 21:24 42.85527 -86.18891 10821 ft 349 kts 114°
2026-05-07 21:24 42.84599 -86.15915 10718 ft 335 kts 115°
2026-05-07 21:25 42.83708 -86.13059 10618 ft 323 kts 115°
2026-05-07 21:25 42.82840 -86.10265 10284 ft 319 kts 115°
2026-05-07 21:25 42.81983 -86.07509 9880 ft 313 kts 115°
2026-05-07 21:25 42.81149 -86.04811 9504 ft 307 kts 115°
2026-05-07 21:26 42.80325 -86.02134 9132 ft 307 kts 115°
2026-05-07 21:26 42.79587 -85.99738 8799 ft 306 kts 115°
2026-05-07 21:26 42.78793 -85.97147 8438 ft 305 kts 115°
2026-05-07 21:26 42.77981 -85.94505 8061 ft 299 kts 115°
2026-05-07 21:27 42.77187 -85.91926 7669 ft 291 kts 114°
2026-05-07 21:27 42.76413 -85.89412 7281 ft 284 kts 114°
2026-05-07 21:27 42.75660 -85.86964 6889 ft 277 kts 114°
2026-05-07 21:27 42.74924 -85.84561 6503 ft 272 kts 114°
2026-05-07 21:28 42.74201 -85.82208 6133 ft 268 kts 114°
2026-05-07 21:28 42.73484 -85.79891 5771 ft 265 kts 115°
2026-05-07 21:28 42.72766 -85.77574 5399 ft 267 kts 115°
2026-05-07 21:28 42.72053 -85.75259 5057 ft 263 kts 114°
2026-05-07 21:29 42.71353 -85.72997 4763 ft 262 kts 114°
2026-05-07 21:29 42.70654 -85.70752 4525 ft 252 kts 114°
2026-05-07 21:29 42.69991 -85.68623 4324 ft 241 kts 114°
2026-05-07 21:29 42.69344 -85.66541 4051 ft 238 kts 114°
2026-05-07 21:30 42.68867 -85.64396 3759 ft 239 kts 94°
2026-05-07 21:30 42.68891 -85.62147 3478 ft 238 kts 86°
2026-05-07 21:30 42.68977 -85.59908 3224 ft 237 kts 85°
2026-05-07 21:30 42.69081 -85.57677 2957 ft 235 kts 85°
2026-05-07 21:31 42.69208 -85.55534 2740 ft 218 kts 83°
2026-05-07 21:31 42.69343 -85.53568 2617 ft 200 kts 84°
2026-05-07 21:31 42.69527 -85.51776 2502 ft 184 kts 70°
2026-05-07 21:31 42.70271 -85.50497 2314 ft 171 kts 28°
2026-05-07 21:32 42.71252 -85.49698 2404 ft 166 kts 27°
2026-05-07 21:32 42.72297 -85.49019 2419 ft 165 kts
2026-05-07 21:32 42.73411 -85.49038 2445 ft 158 kts 352°
2026-05-07 21:32 42.74495 -85.49124 2496 ft 155 kts 351°
2026-05-07 21:33 42.75545 -85.49222 2505 ft 149 kts 351°
2026-05-07 21:33 42.76549 -85.49350 2504 ft 143 kts 347°
2026-05-07 21:33 42.77554 -85.49577 2504 ft 151 kts 345°
2026-05-07 21:33 42.78596 -85.49794 2527 ft 153 kts 347°
2026-05-07 21:34 42.79627 -85.49999 2431 ft 147 kts 347°
2026-05-07 21:34 42.80631 -85.50186 2225 ft 145 kts 348°
2026-05-07 21:34 42.81642 -85.50389 1930 ft 149 kts 347°
2026-05-07 21:34 42.82662 -85.50605 1697 ft 146 kts 348°
2026-05-07 21:35 42.83681 -85.50818 1478 ft 148 kts 348°
2026-05-07 21:35 42.84692 -85.51027 1260 ft 149 kts 349°
2026-05-07 21:35 42.85712 -85.51248 1042 ft 148 kts 349°
2026-05-07 21:35 42.86715 -85.51460 823 ft 144 kts 349°
2026-05-07 21:36 42.87586 -85.51641 793 ft 108 kts 352°
2026-05-07 21:36 42.88116 -85.51759 795 ft 52 kts 352°
2026-05-07 21:36 42.88285 -85.51859 799 ft 20 kts 318°
2026-05-07 21:36 42.88345 -85.51985 797 ft 12 kts 256°
2026-05-07 21:37 42.88282 -85.52014 796 ft 10 kts 172°
2026-05-07 21:37 42.88215 -85.52000 798 ft 9 kts 172°
2026-05-07 21:37 42.88152 -85.51987 798 ft 11 kts 171°
2026-05-07 21:37 42.88088 -85.52061 797 ft 16 kts 261°
2026-05-07 21:38 42.88066 -85.52252 796 ft 24 kts 261°
2026-05-07 21:38 42.88046 -85.52434 799 ft 18 kts 261°
2026-05-07 21:38 42.88027 -85.52602 800 ft 18 kts 261°
2026-05-07 21:38 42.88009 -85.52763 801 ft 17 kts 261°
2026-05-07 21:39 42.87991 -85.52923 800 ft 14 kts 261°
2026-05-07 21:39 42.88037 -85.52990 799 ft 11 kts 350°
2026-05-07 21:39 42.88110 -85.53006 800 ft 11 kts 351°
2026-05-07 21:39 42.88148 -85.52992 800 ft 4 kts 72°
2026-05-07 21:40 42.88154 -85.52953 800 ft 4 kts 79°
2026-05-07 21:40 42.88154 -85.52949 800 ft 0 kts 79°